SCP
0 0 0 0 0 0 0 0 0 0 0 0 0 0 0 0 0 0 0 0 0 0 0 0 0 0 0 0 0 0 0 0 0 0 0 0 0 0 0 0 0 0 0 0
0 0 0 0 0 0 0 0 0 0 0 0 0 0 0 0 0 0 0 0 0 0 0 0 0 0 0 0 0 0 0 0 0 0 0 0 0 0 0 0 0 0 0 0
0 0 0 0 0 0 0 0 0 0 0 0 0 0 0 0 0 0 0 0 0 0 0 0 0 0 0 0 0 0 0 0 0 0 0 0 0 0 0 0 0 0 0 0
0 0 0 0 0 0 0 0 0 0 0 0 0 0 0 0 0 0 0 0 0 0 0 0 0 0 0 0 0 0 0 0 0 0 0 0 0 0 0 0 0 0 0 0
0 0 0 0 0 0 0 0 0 0 0 0 0 0 0 0 0 0 0 0 0 0 0 0 0 0 0 0 0 0 0 0 0 0 0 0 0 0 0 0 0 0 0 0
0 0 0 0 0 0 0 0 0 0 0 0 0 0 0 0 0 0 0 0 0 0 0 0 0 0 0 0 0 0 0 0 0 0 0 0 0 0 0 0 0 0 0 0
0 0 0 0 0 0 0 0 0 0 0 0 0 0 0 0 0 0 0 0 -0 -0 -0 0 0 0 0 0 0 0 0 0 0 0 0 0 0 0 0 0 0 0 0 0
0 0 0 0 0 0 0 0 0 0 0 0 0 0 0 0 0 0 0 0 0 0 0 0 0 0 0 0 0 0 0 0 0 0 0 0 0 0 0 0 0 0 0 0
0 0 0 0 0 0 0 0 0 0 0 0 0 0 0 0 0 0 0 0 0 0 0 0 0 0 0 0 0 0 0 0 0 0 0 0 0 0 0 0 0 0 0 0
0 0 0 0 0 0 0 0 0 0 0 0 0 0 0 0 0 0 0 0 0 0 0 0 0 0 0 0 0 0 0 0 0 0 0 0 0 0 0 0 0 0 0 0
0 0 0 0 0 0 0 0 0 0 0 0 0 0 0 0 0 0 0 0 0 0 0 0 0 0 0 0 0 0 0 0 0 0 0 0 0 0 0 0 0 0 0 0
0 0 0 0 0 0 0 0 0 0 0 0 0 0 0 0 0 0 0 0 0 0 0 0 0 0 0 0 0 0 0 0 0 0 0 0 0 0 0 0 0 0 0 0
0 0 0 0 0 0 0 0 0 0 0 0 0 0 0 0 0 0 0 0 0 0 0 0 0 0 0 0 0 0 0 0 0 0 0 0 0 0 0 0 0 0 0 0
0 0 0 0 0 0 0 0 0 0 0 0 0 0 0 0 0 0 0 0 0 0 0 0 0 0 0 0 0 0 0 0 0 0 0 0 0 0 0 0 0 0 0 0
0 0 0 0 0 0 0 0 0 0 0 0 0 0 0 0 0 0 0 0 0 0 0 0 0 0 0 0 0 0 0 0 0 0 0 0 0 0 0 0 0 0 0 0
0 0 0 0 0 0 0 0 0 0 0 0 0 0 0 0 0 0 0 0 0 0 0 0 0 0 0 0 0 0 0 0 0 0 0 0 0 0 0 0 0 0 0 0
0 0 0 0 0 0 0 0 0 0 0 0 0 0 0 0 0 0 0 0 0 0 0 0 0 0 0 0 0 0 0 0 0 0 0 0 0 0 0 0 0 0 0 0
0 0 0 0 0 0 0 0 0 0 0 0 0 0 0 0 0 0 0 0 0 0 0 0 0 0 0 0 0 0 0 0 0 0 0 0 0 0 0 0 0 0 0 0
0 0 0 0 0 0 0 0 0 0 0 0 0 0 0 0 0 0 0 0 0 0 0 0 0 0 0 0 0 0 0 0 0 0 0 0 0 0 0 0 0 0 0 0
0 0 0 0 0 0 0 0 0 0 0 0 0 0 0 0 0 0 0 0 0 0 0 0 0 0 0 0 0 0 0 0 0 0 0 0 0 0 0 0 0 0 0 0
0 0 0 0 0 0 0 0 0 0 0 0 0 0 0 0 0 0 0 0 0 0 0 0 0 0 0 0 0 0 0 0 0 0 0 0 0 0 0 0 0 0 0 0
0 0 0 0 0 0 0 0 0 0 0 0 0 0 0 0 0 0 0 0 0 0 0 0 0 0 0 0 0 0 0 0 0 0 0 0 0 0 0 0 0 0 0 0
0 0 0 0 0 0 0 0 0 0 0 0 0 0 0 0 0 0 0 0 0 0 0 0 0 0 0 0 0 0 0 0 0 0 0 0 0 0 0 0 0 0 0 0
0 0 0 0 0 0 0 0 0 0 0 0 0 0 0 0 0 0 0 0 0 0 0 0 0 0 0 0 0 0 0 0 0 0 0 0 0 0 0 0 0 0 0 0
0 0 0 0 0 0 0 0 0 0 0 0 0 0 0 0 0 0 0 0 0 0 0 0 0 0 0 0 0 0 0 0 0 0 0 0 0 0 0 0 0 0 0 0
0 0 0 0 0 0 0 0 0 0 0 0 0 0 0 0 0 0 0 0 0 0 0 0 0 0 0 0 0 0 0 0 0 0 0 0 0 0 0 0 0 0 0 0
Wind_Speed
3 3 7 9 9 6 4 3 5 6 4 3 8 13 15 10 7 9 9 8 9 11 10 8 9 9 9 10 11 12 12 12 10 8 7 7 6 5 5 6 7 8 7 7
2 9 11 6 5 5 4 4 5 6 4 3 7 12 11 8 6 7 8 9 9 8 5 6 7 8 10 11 12 12 13 13 12 9 8 5 5 4 5 5 6 8 8 7
11 7 7 7 6 6 6 6 6 5 6 4 5 10 7 6 4 4 5 5 6 7 8 7 8 9 9 11 13 12 13 13 12 10 6 4 3 2 3 4 5 6 8 8
9 8 5 7 8 8 8 6 5 3 2 5 1 6 10 6 6 5 5 5 6 6 6 7 8 9 10 11 10 11 12 11 11 11 10 10 8 7 7 5 5 6 7 8
9 8 9 9 10 10 7 4 3 3 2 4 3 4 11 4 5 7 7 6 6 5 6 7 9 10 9 9 9 9 10 10 10 11 12 11 9 7 4 4 6 6 6 7
7 5 9 10 6 7 5 3 3 3 3 5 6 6 10 6 7 6 6 6 6 5 5 5 5 6 6 6 7 8 9 10 10 11 11 12 11 9 7 7 7 6 4 5
6 6 4 5 6 4 5 5 1 2 1 8 4 5 12 9 8 8 8 7 6 5 5 5 6 7 7 8 8 8 10 10 10 11 11 12 11 11 11 10 9 7 5 5
9 7 9 7 9 9 8 10 8 6 5 5 3 8 11 7 5 5 5 5 5 5 5 6 7 8 8 9 9 9 10 10 10 11 11 10 10 8 8 9 8 9 8 7
10 8 4 6 5 11 8 8 7 5 2 3 7 8 10 2 2 4 4 4 6 7 7 7 7 7 8 9 10 11 11 9 10 10 9 9 9 9 8 8 8 7 6 6
7 5 3 4 4 3 8 9 6 5 5 5 7 6 7 6 7 6 6 7 8 7 6 7 6 7 7 8 8 8 9 10 9 9 9 8 9 9 8 7 8 8 7 7
4 5 2 4 10 12 7 7 6 6 5 6 5 9 8 9 9 9 9 9 9 8 7 7 6 6 6 5 6 7 7 7 7 8 8 7 7 7 7 7 8 8 7 7
5 5 4 7 6 7 8 9 10 8 7 6 5 11 7 7 8 8 9 8 7 7 6 5 5 4 4 5 5 6 6 7 7 7 7 7 6 6 7 7 7 7 7 7
7 6 4 1 2 3 6 7 9 6 5 6 7 11 5 3 5 6 6 7 6 6 5 4 4 4 5 5 5 5 6 6 6 6 6 6 6 6 7 7 6 6 7 7
7 5 8 12 9 8 8 9 10 8 7 8 12 12 7 6 6 7 6 7 6 6 6 6 5 5 5 5 5 5 5 5 5 5 6 6 7 7 7 6 6 6 6 6
6 6 6 6 5 7 9 11 13 14 14 13 13 14 13 10 9 8 7 6 6 6 6 7 7 6 5 5 4 5 4 4 5 5 6 6 5 5 5 5 5 5 5 6
5 6 5 6 6 6 8 12 15 16 15 15 12 16 12 9 7 7 8 8 8 8 8 7 6 6 6 6 5 5 4 4 5 5 5 4 4 4 4 4 4 4 4 4
6 6 5 6 4 3 11 14 16 13 13 14 20 22 8 7 9 10 10 9 9 9 8 8 7 7 7 7 6 6 5 4 4 4 4 4 4 4 4 4 4 4 4 4
8 7 4 3 3 12 11 7 12 14 15 16 14 11 10 13 11 9 9 9 10 9 8 7 7 6 5 5 4 4 4 4 4 4 3 3 4 4 3 3 4 4 3 4
8 9 5 5 6 10 9 7 11 12 15 15 16 14 9 6 3 6 8 9 10 9 7 7 6 5 5 5 5 5 4 4 4 4 4 4 4 4 3 4 4 3 3 3
5 6 7 6 6 11 10 7 6 6 12 11 13 14 10 7 5 9 6 6 6 5 5 5 4 4 4 4 5 5 4 4 5 5 4 3 4 4 4 4 3 2 2 3
7 6 8 7 8 11 10 5 7 8 12 6 10 12 10 12 12 6 5 5 5 5 4 5 5 4 5 5 6 5 5 5 4 3 3 3 3 3 3 2 2 2 2 2
12 9 9 8 9 13 7 8 11 10 4 3 5 7 9 10 7 5 5 6 6 5 4 5 5 4 3 4 6 5 5 4 3 3 3 2 2 2 2 2 1 1 2 2
11 12 9 13 12 7 8 10 9 5 5 5 5 6 7 6 6 6 6 6 6 6 5 4 5 4 3 3 5 5 4 3 4 3 3 2 2 1 2 2 2 1 1 2
6 5 6 7 9 8 8 8 7 6 7 7 6 6 6 7 7 6 6 5 5 5 5 4 5 5 3 3 3 4 3 4 4 4 3 2 2 1 1 1 2 2 2 2
9 7 7 9 9 6 8 10 10 8 6 4 4 5 7 7 6 6 6 6 5 5 4 5 5 5 4 3 3 3 4 5 4 3 2 2 2 2 1 1 2 2 3 4
9 10 12 12 9 9 10 9 9 8 8 7 6 4 4 6 7 6 6 5 5 5 5 5 5 5 4 4 3 3 3 5 5 3 2 2 1 1 1 1 2 4 5 8
Wind_Direction
166 145 205 208 200 197 197 213 252 256 261 248 253 267 276 275 253 249 246 242 238 237 237 220 205 192 183 183 182 182 181 180 173 173 175 176 185 187 187 191 188 184 182 179
143 224 218 203 204 201 215 243 264 284 296 268 276 278 277 270 247 237 237 238 237 240 238 216 200 188 186 186 186 185 185 183 182 183 180 177 171 181 189 190 192 190 185 183
198 221 196 190 205 209 223 221 233 263 321 337 329 306 295 289 274 264 249 240 235 224 221 210 197 193 189 190 190 189 188 185 185 177 159 140 131 138 179 198 198 197 190 188
223 235 190 190 207 192 233 223 212 232 330 297 354 297 288 282 290 272 269 261 250 241 220 207 198 195 197 198 192 190 187 185 182 174 173 173 181 191 197 191 193 196 195 192
221 203 197 205 208 189 212 198 194 205 206 288 273 237 279 288 264 260 255 254 251 239 216 207 203 201 201 194 189 189 185 187 183 182 184 187 194 196 180 178 188 197 199 197
223 210 199 206 199 186 163 89 52 59 92 265 232 200 272 243 227 239 244 247 242 231 214 210 204 195 196 189 186 184 185 191 187 187 189 193 195 187 179 187 194 199 201 203
220 228 209 166 156 161 133 114 32 308 274 248 222 210 250 243 232 219 222 231 226 218 205 204 194 196 198 193 191 187 188 195 193 193 196 198 198 193 196 195 198 198 199 206
188 219 207 188 176 175 178 160 174 201 220 268 259 230 252 254 241 229 221 217 213 214 214 214 209 204 203 201 196 193 195 200 197 199 202 201 198 198 203 201 200 203 206 208
184 219 204 194 171 149 163 193 177 149 203 254 263 275 296 265 234 229 227 217 222 224 223 223 221 213 208 205 203 199 199 202 201 202 201 201 200 201 204 202 202 205 207 203
158 195 209 182 126 170 166 160 138 160 187 235 270 259 243 234 228 230 226 225 231 231 230 229 224 219 216 212 208 202 202 205 204 201 202 204 204 205 204 199 205 206 205 200
150 160 189 174 189 184 162 174 168 168 179 181 242 260 227 216 210 210 221 225 226 225 225 225 224 221 215 208 202 203 206 206 205 203 203 204 204 202 201 204 208 205 202 198
163 144 202 226 232 196 178 180 162 174 211 195 206 262 255 228 221 211 221 232 233 227 225 225 221 214 208 207 205 204 205 206 208 202 199 204 203 197 200 208 207 200 200 199
161 149 148 261 256 194 203 199 188 171 158 179 197 256 280 247 237 232 229 236 236 232 229 223 217 214 214 212 209 208 207 208 205 196 198 203 202 201 206 208 203 198 199 199
154 168 190 202 207 186 204 207 192 176 195 215 222 241 267 262 254 257 248 236 232 232 224 217 219 222 221 215 210 209 214 205 196 191 196 205 207 205 207 205 200 198 197 197
156 194 220 239 225 188 205 209 200 204 209 216 231 233 240 242 239 243 241 237 231 231 228 221 219 221 220 218 215 209 209 200 187 187 198 210 209 203 199 198 198 195 195 199
159 183 198 240 234 220 230 220 212 217 221 229 244 252 241 241 241 244 238 227 226 230 229 226 221 215 214 212 209 204 205 199 181 189 203 203 192 191 194 196 191 189 194 195
172 158 174 231 241 261 246 216 210 215 216 212 231 243 242 235 234 234 234 224 221 225 224 219 214 211 210 207 198 197 197 181 176 189 196 193 188 192 196 189 184 193 198 198
167 165 166 184 170 232 241 211 207 217 229 222 230 239 228 227 234 232 221 215 220 220 217 215 208 206 207 197 187 179 170 169 175 184 192 191 184 189 186 180 194 202 198 203
177 163 161 169 214 262 277 233 199 206 241 228 229 239 237 226 240 264 229 212 214 212 207 203 198 194 186 186 176 160 165 168 175 190 196 192 183 182 182 193 205 206 201 216
169 163 162 169 198 235 241 230 192 170 255 238 216 229 223 163 214 250 224 205 207 198 188 185 176 166 175 185 160 158 173 177 196 199 194 185 179 181 191 201 205 205 206 223
165 178 188 187 216 252 246 221 133 182 237 233 204 213 197 193 215 224 182 187 188 186 184 170 163 171 188 173 156 167 179 200 202 177 164 164 171 180 187 186 191 197 212 227
177 181 191 181 212 242 223 159 188 218 228 210 204 207 201 211 219 206 195 192 184 181 179 169 162 174 180 163 157 169 196 199 156 144 147 155 162 166 154 160 188 195 199 230
200 193 185 197 217 225 194 206 224 203 204 214 207 213 196 199 209 205 201 196 192 187 181 170 163 163 174 170 162 174 194 158 141 139 150 154 148 149 157 170 192 213 213 232
232 191 184 225 243 237 233 238 244 222 217 217 208 201 189 198 201 200 197 193 190 185 179 166 157 163 181 178 164 171 164 146 139 145 152 149 147 158 178 192 196 209 225 240
206 182 200 232 247 252 248 231 231 233 233 228 222 208 198 190 197 195 193 194 190 183 174 166 168 172 177 163 153 153 149 139 137 143 150 154 164 179 208 236 231 234 230 236
202 190 199 223 213 209 233 229 219 214 219 213 207 220 213 194 194 188 190 189 179 174 166 163 165 163 164 156 151 151 148 143 143 150 163 173 182 193 210 254 299 289 282 288